This demonstration page uses our WeatherBlox Daily Observations layout. Learn more.

Left ArrowRight Arrow

41.12389, -100.76542

Hourly Observations for September 29, 2017

Temp ( °F °C ) Dew Point ( °F °C ) Humidity (%) Winds ( mph kmh ) Pressure ( in mb ) Visibility ( mi km ) Precip ( " mm )
12:53 am 00:53 Cloudy 58 14.4 55 12.8 90 90 Calm 30.24 1024 10 16 0.00 0.00
1:53 am 01:53 Cloudy 58 14.4 54 12.2 87 87 Calm 30.24 1024 10 16 0.00 0.00
2:53 am 02:53 Cloudy 58 14.4 54 12.2 87 87 Calm 30.24 1024 10 16 0.00 0.00
3:53 am 03:53 Cloudy 54 12.2 52 11.1 93 93 Calm 30.25 1024 10 16 0.00 0.00
4:53 am 04:53 Mostly Clear 52 11.1 51 10.6 97 97 W 3 6 30.25 1024 10 16 0.00 0.00
5:53 am 05:53 Cloudy 53 11.7 52 11.1 96 96 WNW 3 6 30.26 1025 10 16 0.00 0.00
6:53 am 06:53 Cloudy 53 11.7 52 11.1 96 96 SW 6 9 30.27 1025 10 16 0.00 0.00
7:53 am 07:53 Cloudy 54 12.2 52 11.1 93 93 Calm 30.27 1025 10 16 0.00 0.00
8:53 am 08:53 Cloudy 57 13.9 53 11.7 87 87 NNE 3 6 30.27 1025 10 16 0.00 0.00
9:53 am 09:53 Cloudy 59 15 54 12.2 83 83 Calm 30.28 1026 10 16 0.00 0.00
10:53 am 10:53 Cloudy 64 17.8 54 12.2 70 70 SSE 3 6 30.27 1025 10 16 0.00 0.00
11:53 am 11:53 Cloudy 68 20 51 10.6 55 55 SE 5 7 30.25 1024 10 16 0.00 0.00
12:53 pm 12:53 Mostly Cloudy 70 21.1 51 10.6 51 51 SE 8 13 30.23 1024 10 16 0.00 0.00
1:53 pm 13:53 Cloudy 70 21.1 48 8.9 46 46 SSE 7 11 30.22 1023 10 16 0.00 0.00
2:53 pm 14:53 Cloudy with Light Rain 70 21.1 47 8.3 44 44 S 7 11 30.20 1023 10 16 0.00 0.03
3:53 pm 15:53 Cloudy 70 21.1 47 8.3 44 44 S 8 13 30.19 1023 10 16 0.00 0.03
4:53 pm 16:53 Cloudy 66 18.9 54 12.2 65 65 WNW 10 17 30.19 1023 10 16 0.00 0.00
5:53 pm 17:53 Cloudy 64 17.8 55 12.8 73 73 W 7 11 30.19 1023 10 16 0.00 0.03
6:53 pm 18:53 Cloudy 62 16.7 55 12.8 78 78 W 5 7 30.20 1023 10 16 0.00 0.03
7:53 pm 19:53 Cloudy with Light Rain 61 16.1 56 13.3 84 84 Calm 30.19 1023 10 16 0.00 0.03
8:53 pm 20:53 Cloudy 59 15 56 13.3 90 90 E 3 6 30.19 1022 10 16 0.00 0.03
9:53 pm 21:53 Cloudy 59 15 56 13.3 90 90 ESE 3 6 30.20 1023 10 16 0.00 0.00
10:53 pm 22:53 Cloudy 59 15 56 13.3 90 90 ESE 3 6 30.19 1022 10 16 0.00 0.03
11:53 pm 23:53 Cloudy 59 15 56 13.3 90 90 ESE 3 6 30.18 1022 10 16 0.00 0.00

Powered by AerisWeather